Lid_Strength_Index
-0 -0 -1 -1 -2 -2 -2 -2 -2 -2 -2 -2 -2 -2 -2 -2 -2 -1 1 2 2 2 2 2 2 4 7
1 2 1 -0 -1 -1 -1 -0 -0 -1 -1 -1 -1 -2 -2 -2 -1 -1 0 1 2 2 2 2 3 4 8
-0 1 2 1 0 1 1 1 1 0 -0 -0 0 -1 -2 -2 -2 -1 -0 1 2 2 2 3 5 9 8
2 -0 -0 -0 1 0 0 1 -0 1 -0 -0 1 0 -1 -1 -2 -2 -0 1 4 7 7 6 9 9 8
7 1 0 -0 0 1 1 1 -0 0 0 1 1 1 1 1 2 2 3 3 5 6 7 8 8 9 9
6 3 1 1 1 3 2 1 1 1 2 1 2 1 1 1 3 4 4 4 4 5 6 6 7 8 8
4 2 2 4 3 3 4 2 1 1 1 1 2 1 2 1 2 4 4 4 5 4 5 5 6 7 7
2 3 4 4 4 4 4 3 3 2 2 3 3 3 3 2 3 4 4 5 4 5 5 5 5 6 7
4 4 5 5 4 5 5 4 4 4 4 4 4 4 4 4 4 4 5 5 6 5 6 5 6 8 8
5 5 6 6 6 6 5 5 5 5 4 4 4 4 4 4 4 6 7 9 9 9 8 8 9 9 9
6 6 7 6 6 6 5 5 5 6 6 6 7 7 7 7 8 9 10 10 10 9 8 9 10 10 11
7 8 8 9 9 9 8 8 8 8 8 9 10 10 9 9 10 11 13 13 12 10 9 10 10 11 12
8 9 9 10 11 11 11 10 11 10 10 11 12 12 12 11 11 11 13 14 14 13 10 11 12 12 13
7 9 10 12 13 13 13 13 13 13 13 13 14 14 14 14 15 14 14 14 15 15 12 12 13 12 14
10 11 13 13 13 14 15 15 15 14 14 14 15 15 15 15 16 16 15 15 16 16 16 13 16 16 15
11 12 13 14 15 15 16 16 15 15 15 15 15 15 15 15 16 16 16 16 16 17 16 15 17 16 18